Find Starlink 6116

NORAD ID: 56911 Int'l Des: 2023-083 Owner: SPXS Country: US Constellation: starlink operational
LEOCIRCULAR

Live Position

Loading 3D Globe...

About Starlink 6116

Description loading...

Upcoming Passes

Passes for default location (London). Set your location on the main map for personalized predictions.

Altitude History

Loading altitude history...

Two-Line Element Set

1 56911U 23083AM 26130.23964492 -.00000868 00000-0 -22030-4 0 9994
2 56911 43.0018 82.8911 0000796 265.8847 94.1913 15.27572371161219
Epoch: May 10, 2026 • Age: 14 hours

Current Status

Altitude 486.5 km
Velocity 7.63 km/s
Sub-Earth Point 42.16°N, 17.52°W
Launch Date Jun 12, 2023
Age 2.9 years
Type internet

Technical Details

Classification Payload
Mass 305.00 kg
Dry Mass 290.00 kg
Total Mass 305.00 kg
Length 0.20 m
Diameter 2.80 m
Span 9.00 m
Shape Box + pan
Manufacturer SPXS
Bus Type Starlink
Phase Status In Orbit
Owner/State SPXS/US

Most Searched